Flag for Germany Weather past 2 weeks in Gladbeck, North Rhine-Westphalia, Germany

Now
79 °F

Clear.


Feels Like: 80 °F
Forecast: 70 / 88 °F
Wind: 5 mph from Southeast

Location: Duesseldorf

Current Time: Jul 2, 2015 at 4:09:04 AM

Latest Report: Jul 2, 2015 at 3:00 AM


Visibility: 31 mi

Pressure: 30.04 "Hg

Humidity: 47%

Dew point: 57 °F

Location of GladbeckLocation

Historic Weather in Gladbeck — Graph

°F

Gladbeck temperature yesterday

Maximum temperature yesterday: 92 °F (at 6:00 PM)
Minimum temperature yesterday: 59 °F (at 6:00 AM)
Average temperature yesterday: 78 °F

Past Weeks' High & Low Weather Summary

 TemperatureHumidityPressure
High92 °F (Jul 1, 6:00 PM)98% (Jun 22, 10:00 PM)30.31 "Hg (Jun 22, 10:00 PM)
Low42 °F (Jun 17, 4:00 AM)26% (Jul 1, 6:00 PM)29.72 "Hg (Jun 22, 8:00 PM)
Average64 °F68%30.07 "Hg
* Reported Jun 17 3:00 AM — Jul 2 3:00 AM, Gladbeck, Weather by CustomWeather, © 2015

Note: Actual official high and low records may vary slightly from our data, if they occured in-between our weather recording intervals... More about our weather records

Advertising

Gladbeck weather history for previous 24 hours

 ConditionsComfort  
Time TempWeatherWind HumidityBarometerVisibility
3:00 AM
Thu, Jul 2
79 °FClear.5 mph47%30.04 "Hg31 mi
2:00 AM79 °FClear.5 mph47%30.04 "Hg31 mi
1:00 AM81 °FClear.6 mph45%30.03 "Hg31 mi
12:00 AM83 °FClear.5 mph41%30.02 "Hg31 mi
10:00 PM
Wed, Jul 1
85 °FPassing clouds.5 mph38%30.01 "Hg25 mi
9:00 PM87 °FPassing clouds.5 mph35%30.00 "Hg25 mi
8:00 PM90 °FPassing clouds.6 mph32%30.00 "Hg25 mi
7:00 PM91 °FPassing clouds.7 mph29%30.00 "Hg25 mi
6:00 PM92 °FPassing clouds.6 mph26%30.01 "Hg25 mi
4:00 PM91 °FScattered clouds.6 mph28%30.02 "Hg25 mi
3:00 PM90 °FScattered clouds.6 mph31%30.03 "Hg28 mi
2:00 PM89 °FPartly sunny.7 mph29%30.04 "Hg28 mi
1:00 PM87 °FScattered clouds.6 mph33%30.05 "Hg31 mi
12:00 PM86 °FPassing clouds.7 mph33%30.07 "Hg31 mi
10:00 AM80 °FPassing clouds.7 mph43%30.08 "Hg31 mi
9:00 AM76 °FPassing clouds.5 mph47%30.09 "Hg31 mi
8:00 AM73 °FPassing clouds.3 mph52%30.09 "Hg31 mi
7:00 AM65 °FPassing clouds.1 mph71%30.09 "Hg28 mi
6:00 AM59 °FPassing clouds.1 mph86%30.09 "Hg16 mi
4:00 AM61 °FClear.1 mph79%30.09 "Hg19 mi
Weather by CustomWeather, © 2015

See weather overviewHow to use our weather pages